| time (UTC) | temp F | wind direction | speed MPH | gust MPH | rain 1hr in | rain 24hr in | rain mn in | humidity % | barometer mb |
| 20260505041516 | 32 | 0.0 | 0.0 | 0.00 | 0.04 | 0.04 | 93 | 1011.1 | |
| 20260505040535 | 32 | 0.0 | 0.0 | 0.00 | 0.04 | 0.04 | 93 | 1011.5 | |
| 20260505035515 | 32 | 0.0 | 0.0 | 0.00 | 0.04 | 0.04 | 92 | 1011.0 | |
| 20260505034516 | 32 | 0.0 | 0.0 | 0.00 | 0.04 | 0.04 | 92 | 1010.9 | |
| 20260505033515 | 32 | 0.0 | 0.0 | 0.00 | 0.04 | 0.04 | 92 | 1010.6 | |
| 20260505032516 | 32 | 0.0 | 0.0 | 0.01 | 0.04 | 0.04 | 91 | 1010.1 | |
| 20260505031516 | 32 | 0.0 | 0.0 | 0.03 | 0.04 | 0.04 | 91 | 1010.0 | |
| 20260505030515 | 33 | 0.0 | 0.0 | 0.03 | 0.04 | 0.04 | 90 | 1010.0 | |
| 20260505025515 | 34 | 0.0 | 1.0 | 0.03 | 0.04 | 0.04 | 88 | 1010.7 | |
| 20260505024515 | 34 | 0.0 | 0.0 | 0.03 | 0.04 | 0.04 | 86 | 1010.7 | |
| 20260505023515 | 36 | 0.0 | 0.0 | 0.03 | 0.04 | 0.04 | 85 | 1011.2 | |
| 20260505022515 | 37 | 0.0 | 0.0 | 0.02 | 0.03 | 0.03 | 83 | 1010.8 | |
| 20260505021515 | 38 | 203 | 1.0 | 4.0 | 0.00 | 0.01 | 0.01 | 83 | 1010.7 |
| 20260505020515 | 38 | 0.0 | 0.0 | 0.00 | 0.01 | 0.01 | 81 | 1010.8 | |
| 20260505015517 | 38 | 0.0 | 3.0 | 0.00 | 0.01 | 0.01 | 81 | 1010.4 | |
| 20260505014517 | 38 | 203 | 1.0 | 4.0 | 0.00 | 0.01 | 0.01 | 81 | 1010.5 |
| 20260505013517 | 39 | 203 | 1.0 | 4.0 | 0.00 | 0.01 | 0.01 | 80 | 1010.5 |
| 20260505012517 | 39 | 203 | 1.0 | 4.0 | 0.00 | 0.01 | 0.01 | 80 | 1010.4 |
| 20260505011517 | 39 | 0.0 | 2.0 | 0.00 | 0.01 | 0.01 | 80 | 1010.6 | |
| 20260505010517 | 40 | 203 | 2.0 | 9.0 | 0.00 | 0.01 | 0.01 | 78 | 1010.5 |
| 20260505005517 | 40 | 225 | 2.0 | 6.0 | 0.00 | 0.01 | 0.01 | 77 | 1010.4 |
| 20260505004517 | 40 | 203 | 1.0 | 4.0 | 0.00 | 0.01 | 0.01 | 78 | 1010.5 |
| 20260505003517 | 39 | 248 | 3.0 | 10.0 | 0.00 | 0.01 | 0.01 | 79 | 1010.6 |
| 20260505002517 | 39 | 270 | 5.0 | 9.0 | 0.01 | 0.01 | 0.01 | 79 | 1010.4 |
| 20260505001537 | 39 | 248 | 5.0 | 10.0 | 0.01 | 0.01 | 0.01 | 77 | 1010.3 |
| 20260505000517 | 40 | 248 | 3.0 | 9.0 | 0.01 | 0.01 | 0.01 | 77 | 1010.6 |
| 20260504235517 | 40 | 225 | 3.0 | 9.0 | 0.01 | 0.01 | 0.01 | 77 | 1011.3 |
| 20260504234517 | 40 | 248 | 3.0 | 8.0 | 0.01 | 0.01 | 0.01 | 78 | 1011.3 |
| 20260504233517 | 41 | 225 | 2.0 | 4.0 | 0.01 | 0.01 | 0.01 | 74 | 1011.1 |
| 20260504232517 | 43 | 225 | 1.0 | 4.0 | 0.00 | 0.00 | 0.00 | 67 | 1011.8 |
| 20260504231537 | 44 | 180 | 2.0 | 6.0 | 0.00 | 0.00 | 0.00 | 64 | 1012.2 |
| 20260504230516 | 44 | 180 | 2.0 | 7.0 | 0.00 | 0.00 | 0.00 | 62 | 1012.1 |
| 20260504225516 | 44 | 158 | 5.0 | 9.0 | 0.00 | 0.00 | 0.00 | 63 | 1011.8 |
| 20260504224517 | 43 | 158 | 4.0 | 11.0 | 0.00 | 0.00 | 0.00 | 64 | 1011.3 |
| 20260504223517 | 43 | 158 | 7.0 | 12.0 | 0.00 | 0.00 | 0.00 | 62 | 1011.4 |
| 20260504222516 | 44 | 135 | 6.0 | 14.0 | 0.00 | 0.00 | 0.00 | 57 | 1011.3 |
| 20260504221517 | 45 | 180 | 4.0 | 10.0 | 0.00 | 0.00 | 0.00 | 56 | 1012.4 |
| 20260504220517 | 46 | 180 | 6.0 | 12.0 | 0.00 | 0.00 | 0.00 | 53 | 1012.2 |
| 20260504215517 | 48 | 158 | 5.0 | 9.0 | 0.00 | 0.00 | 0.00 | 49 | 1013.0 |
| 20260504214517 | 49 | 135 | 7.0 | 13.0 | 0.00 | 0.00 | 0.00 | 39 | 1013.1 |
| 20260504213517 | 49 | 0 | 6.0 | 10.0 | 0.00 | 0.00 | 0.00 | 39 | 1013.0 |
| 20260504212536 | 50 | 0 | 3.0 | 6.0 | 0.00 | 0.00 | 0.00 | 37 | 1013.6 |
| 20260504211516 | 51 | 68 | 3.0 | 11.0 | 0.00 | 0.00 | 0.00 | 35 | 1013.3 |
| 20260504210516 | 52 | 270 | 2.0 | 6.0 | 0.00 | 0.00 | 0.00 | 34 | 1013.3 |
| 20260504205517 | 52 | 158 | 1.0 | 6.0 | 0.00 | 0.00 | 0.00 | 36 | 1013.9 |
| 20260504204516 | 52 | 0 | 1.0 | 5.0 | 0.00 | 0.00 | 0.00 | 33 | 1014.8 |
| 20260504203517 | 51 | 0 | 2.0 | 6.0 | 0.00 | 0.00 | 0.00 | 34 | 1014.4 |
| 20260504202517 | 51 | 0 | 2.0 | 6.0 | 0.00 | 0.00 | 0.00 | 34 | 1014.5 |
| 20260504201517 | 51 | 45 | 3.0 | 9.0 | 0.00 | 0.00 | 0.00 | 36 | 1014.5 |
| 20260504200516 | 50 | 68 | 4.0 | 12.0 | 0.00 | 0.00 | 0.00 | 40 | 1014.6 |
| 20260504195516 | 48 | 113 | 5.0 | 16.0 | 0.00 | 0.00 | 0.00 | 46 | 1014.3 |
| 20260504194517 | 47 | 68 | 6.0 | 12.0 | 0.00 | 0.00 | 0.00 | 50 | 1014.0 |
| 20260504193517 | 45 | 0 | 7.0 | 17.0 | 0.00 | 0.00 | 0.00 | 56 | 1013.6 |
| 20260504192516 | 43 | 90 | 9.0 | 19.0 | 0.00 | 0.00 | 0.00 | 59 | 1012.5 |
| 20260504191516 | 44 | 0 | 7.0 | 18.0 | 0.00 | 0.00 | 0.00 | 55 | 1012.4 |
| 20260504190516 | 44 | 0 | 8.0 | 18.0 | 0.00 | 0.00 | 0.00 | 53 | 1012.8 |
| 20260504185516 | 46 | 0 | 8.0 | 17.0 | 0.00 | 0.00 | 0.00 | 49 | 1013.3 |
| 20260504184516 | 47 | 0 | 10.0 | 19.0 | 0.00 | 0.00 | 0.00 | 46 | 1013.1 |
| 20260504183536 | 48 | 0 | 6.0 | 15.0 | 0.00 | 0.00 | 0.00 | 43 | 1013.8 |
| 20260504182516 | 49 | 68 | 10.0 | 18.0 | 0.00 | 0.00 | 0.00 | 44 | 1014.6 |
| 20260504181516 | 48 | 113 | 2.0 | 10.0 | 0.00 | 0.00 | 0.00 | 42 | 1014.1 |
| 20260504180516 | 47 | 90 | 3.0 | 12.0 | 0.00 | 0.00 | 0.00 | 43 | 1014.3 |
| 20260504175516 | 48 | 0 | 5.0 | 12.0 | 0.00 | 0.00 | 0.00 | 43 | 1014.3 |
| 20260504174516 | 48 | 23 | 3.0 | 12.0 | 0.00 | 0.00 | 0.00 | 43 | 1014.3 |
| 20260504173516 | 48 | 0 | 1.0 | 4.0 | 0.00 | 0.00 | 0.00 | 42 | 1014.4 |
| 20260504172516 | 48 | 45 | 2.0 | 5.0 | 0.00 | 0.00 | 0.00 | 43 | 1014.6 |
| 20260504171516 | 48 | 68 | 4.0 | 10.0 | 0.00 | 0.00 | 0.00 | 41 | 1014.7 |
| 20260504170516 | 48 | 68 | 3.0 | 9.0 | 0.00 | 0.00 | 0.00 | 42 | 1014.7 |
| 20260504150516 | 43 | 0 | 3.0 | 7.0 | 0.00 | 0.00 | 0.00 | 46 | 1014.4 |
| 20260504140515 | 42 | 270 | 1.0 | 3.0 | 0.00 | 0.00 | 0.00 | 40 | 1014.6 |
| 20260504130517 | 41 | 0 | 3.0 | 8.0 | 0.00 | 0.00 | 0.00 | 37 | 1015.9 |
| 20260504110517 | 42 | 0.0 | 1.0 | 0.00 | 0.00 | 0.00 | 32 | 1016.2 | |
| 20260504100517 | 42 | 0.0 | 0.0 | 0.00 | 0.00 | 0.00 | 33 | 1015.8 | |
| 20260504081515 | 44 | 68 | 5.0 | 8.0 | 0.00 | 0.00 | 0.00 | 30 | 1017.2 |
| 20260504080515 | 44 | 68 | 4.0 | 8.0 | 0.00 | 0.00 | 0.00 | 31 | 1017.4 |
| 20260504050515 | 42 | 270 | 1.0 | 2.0 | 0.00 | 0.00 | 0.00 | 42 | 1017.5 |
| 20260504045536 | 43 | 0.0 | 1.0 | 0.00 | 0.00 | 0.00 | 42 | 1017.6 | |
| 20260504044515 | 43 | 270 | 2.0 | 3.0 | 0.00 | 0.00 | 0.00 | 42 | 1017.6 |
| 20260504043516 | 43 | 270 | 3.0 | 4.0 | 0.00 | 0.00 | 0.00 | 42 | 1017.8 |
| 20260504042515 | 43 | 270 | 3.0 | 4.0 | 0.00 | 0.00 | 0.00 | 42 | 1017.2 |